ARG1304 SAEZ-KMIA

Flight info

Callsign ARG1304
Flight time N/A
Altitude 34000
Route BIVAM1J BIVAM UW8 PAR UL417 ISARA/N0477F360 UL417 NEVPA/N0467F380 UL417 LENAX UL795 ALTIB UM779 ZEUSS VIICE2
Aircraft A333/H-SDE3GHIJ2J3J5M1RVWXY/LB2D1

Departure

Time 2026-05-04 18:08
Airport Ezeiza International Airport - Ministro Pistarini (SAEZ)

Arrival

Time N/A
Airport Miami International Airport (KMIA)
Time Latitude Longitude Altitude Speed Heading
2026-05-04 16:37 -34.81643 -58.54369 76 ft 0 kts 12°
2026-05-04 17:53 -34.81645 -58.54369 76 ft 2 kts 12°
2026-05-04 17:53 -34.81660 -58.54373 76 ft 2 kts 12°
2026-05-04 17:53 -34.81675 -58.54377 76 ft 2 kts 12°
2026-05-04 17:53 -34.81690 -58.54381 76 ft 2 kts 12°
2026-05-04 17:54 -34.81705 -58.54385 76 ft 2 kts 12°
2026-05-04 17:54 -34.81719 -58.54388 76 ft 2 kts 17°
2026-05-04 17:54 -34.81733 -58.54396 76 ft 2 kts 39°
2026-05-04 17:54 -34.81744 -58.54409 76 ft 2 kts 56°
2026-05-04 17:55 -34.81751 -58.54425 76 ft 2 kts 73°
2026-05-04 17:55 -34.81754 -58.54443 76 ft 2 kts 91°
2026-05-04 17:55 -34.81753 -58.54453 76 ft 1 kts 99°
2026-05-04 17:55 -34.81753 -58.54456 76 ft 0 kts 99°
2026-05-04 17:59 -34.81753 -58.54455 75 ft 0 kts 99°
2026-05-04 17:59 -34.81761 -58.54391 76 ft 10 kts 99°
2026-05-04 18:00 -34.81774 -58.54274 76 ft 16 kts 99°
2026-05-04 18:00 -34.81792 -58.54131 76 ft 17 kts 95°
2026-05-04 18:00 -34.81770 -58.54001 75 ft 14 kts 63°
2026-05-04 18:00 -34.81723 -58.53893 75 ft 13 kts 61°
2026-05-04 18:01 -34.81709 -58.53787 75 ft 12 kts 110°
2026-05-04 18:01 -34.81769 -58.53711 75 ft 12 kts 149°
2026-05-04 18:01 -34.81841 -58.53666 75 ft 11 kts 155°
2026-05-04 18:02 -34.81984 -58.53585 75 ft 13 kts 154°
2026-05-04 18:02 -34.82084 -58.53526 75 ft 17 kts 155°
2026-05-04 18:02 -34.82194 -58.53463 76 ft 17 kts 155°
2026-05-04 18:02 -34.82303 -58.53399 76 ft 18 kts 154°
2026-05-04 18:03 -34.82429 -58.53324 75 ft 20 kts 154°
2026-05-04 18:03 -34.82559 -58.53247 76 ft 20 kts 154°
2026-05-04 18:03 -34.82686 -58.53171 76 ft 19 kts 154°
2026-05-04 18:03 -34.82808 -58.53100 75 ft 20 kts 154°
2026-05-04 18:04 -34.82946 -58.53020 76 ft 22 kts 154°
2026-05-04 18:04 -34.83096 -58.52933 75 ft 24 kts 154°
2026-05-04 18:04 -34.83407 -58.52752 76 ft 21 kts 154°
2026-05-04 18:05 -34.83535 -58.52677 76 ft 17 kts 155°
2026-05-04 18:05 -34.83591 -58.52612 76 ft 8 kts 92°
2026-05-04 18:05 -34.83590 -58.52605 76 ft 0 kts 82°
2026-05-04 18:06 -34.83586 -58.52585 76 ft 4 kts 75°
2026-05-04 18:06 -34.83565 -58.52542 76 ft 7 kts 46°
2026-05-04 18:07 -34.83514 -58.52502 76 ft 9 kts 28°
2026-05-04 18:07 -34.83440 -58.52490 76 ft 12 kts 349°
2026-05-04 18:07 -34.83348 -58.52518 75 ft 16 kts 344°
2026-05-04 18:07 -34.83070 -58.52614 76 ft 73 kts 343°
2026-05-04 18:08 -34.82365 -58.52861 76 ft 134 kts 343°
2026-05-04 18:08 -34.81295 -58.53236 117 ft 179 kts 343°
2026-05-04 18:08 -34.80182 -58.53603 1023 ft 157 kts 346°
2026-05-04 18:08 -34.79024 -58.53988 1272 ft 188 kts 343°
2026-05-04 18:09 -34.76454 -58.55053 2046 ft 198 kts 321°
2026-05-04 18:09 -34.75595 -58.58347 2495 ft 229 kts 270°
2026-05-04 18:10 -34.75298 -58.60276 2680 ft 239 kts 300°
2026-05-04 18:10 -34.74145 -58.61800 2998 ft 250 kts 326°
2026-05-04 18:10 -34.72672 -58.62893 3752 ft 249 kts 330°
2026-05-04 18:10 -34.71132 -58.63913 4469 ft 250 kts 331°
2026-05-04 18:11 -34.69572 -58.64894 5143 ft 252 kts 332°
2026-05-04 18:11 -34.67999 -58.65868 5826 ft 253 kts 331°
2026-05-04 18:11 -34.66416 -58.66840 6499 ft 254 kts 331°
2026-05-04 18:11 -34.64826 -58.67817 7060 ft 259 kts 331°
2026-05-04 18:12 -34.63201 -58.68813 7644 ft 263 kts 330°
2026-05-04 18:12 -34.61518 -58.69844 8174 ft 270 kts 330°
2026-05-04 18:12 -34.59840 -58.70870 8732 ft 273 kts 330°
2026-05-04 18:12 -34.58107 -58.71931 9280 ft 278 kts 329°
2026-05-04 18:13 -34.56366 -58.72997 9787 ft 283 kts 329°
2026-05-04 18:13 -34.54581 -58.74089 10283 ft 289 kts 329°
2026-05-04 18:13 -34.50725 -58.76447 10651 ft 323 kts 329°
2026-05-04 18:14 -34.48664 -58.77705 10806 ft 339 kts 329°
2026-05-04 18:14 -34.46472 -58.79042 10997 ft 353 kts 329°
2026-05-04 18:14 -34.44250 -58.80395 11495 ft 356 kts 329°
2026-05-04 18:15 -34.39788 -58.83111 12579 ft 358 kts 329°
2026-05-04 18:15 -34.35297 -58.85839 13614 ft 361 kts 328°
2026-05-04 18:15 -34.33033 -58.87217 14000 ft 366 kts 328°
2026-05-04 18:16 -34.30707 -58.88629 14394 ft 370 kts 328°
2026-05-04 18:16 -34.28417 -58.90019 14818 ft 372 kts 328°
2026-05-04 18:16 -34.26071 -58.91443 15195 ft 376 kts 328°
2026-05-04 18:17 -34.21314 -58.94327 16049 ft 381 kts 327°
2026-05-04 18:17 -34.18918 -58.95777 16406 ft 385 kts 327°
2026-05-04 18:17 -34.14046 -58.98725 17150 ft 391 kts 327°
2026-05-04 18:18 -34.11587 -59.00211 17543 ft 393 kts 327°
2026-05-04 18:18 -34.09124 -59.01699 17919 ft 396 kts 327°
2026-05-04 18:18 -34.06639 -59.03199 18252 ft 399 kts 327°
2026-05-04 18:18 -34.04136 -59.04709 18632 ft 401 kts 327°
2026-05-04 18:19 -33.99027 -59.07787 19291 ft 407 kts 327°
2026-05-04 18:19 -33.96485 -59.09318 19669 ft 409 kts 327°
2026-05-04 18:19 -33.93912 -59.10866 19992 ft 411 kts 327°
2026-05-04 18:20 -33.91334 -59.12415 20305 ft 413 kts 327°
2026-05-04 18:20 -33.88741 -59.13972 20614 ft 416 kts 327°
2026-05-04 18:20 -33.86101 -59.15559 20928 ft 417 kts 327°
2026-05-04 18:20 -33.83483 -59.17130 21228 ft 419 kts 327°
2026-05-04 18:21 -33.80856 -59.18704 21559 ft 420 kts 327°
2026-05-04 18:21 -33.78220 -59.20283 21830 ft 423 kts 327°
2026-05-04 18:21 -33.75559 -59.21877 22109 ft 424 kts 327°
2026-05-04 18:21 -33.72878 -59.23479 22414 ft 425 kts 326°
2026-05-04 18:22 -33.70227 -59.25065 22690 ft 427 kts 326°
2026-05-04 18:22 -33.67525 -59.26680 22923 ft 429 kts 326°
2026-05-04 18:22 -33.64799 -59.28307 23122 ft 432 kts 326°
2026-05-04 18:22 -33.62087 -59.29925 23395 ft 434 kts 326°
2026-05-04 18:23 -33.59366 -59.31547 23631 ft 436 kts 326°
2026-05-04 18:23 -33.56612 -59.33187 23928 ft 437 kts 326°
2026-05-04 18:23 -33.53857 -59.34829 24183 ft 439 kts 326°
2026-05-04 18:23 -33.51082 -59.36479 24408 ft 442 kts 326°
2026-05-04 18:24 -33.48293 -59.38137 24682 ft 443 kts 326°
2026-05-04 18:24 -33.45518 -59.39785 24990 ft 443 kts 326°
2026-05-04 18:24 -33.42725 -59.41443 25204 ft 446 kts 326°
2026-05-04 18:24 -33.39891 -59.43124 25435 ft 448 kts 326°
2026-05-04 18:25 -33.37104 -59.44776 25709 ft 449 kts 326°
2026-05-04 18:25 -33.34275 -59.46450 25981 ft 450 kts 326°
2026-05-04 18:25 -33.31405 -59.48151 26202 ft 453 kts 326°
2026-05-04 18:25 -33.28550 -59.49839 26470 ft 454 kts 326°
2026-05-04 18:26 -33.25674 -59.51539 26707 ft 455 kts 326°
2026-05-04 18:26 -33.22835 -59.53216 26935 ft 457 kts 326°
2026-05-04 18:26 -33.19924 -59.54932 27193 ft 458 kts 326°
2026-05-04 18:26 -33.17043 -59.56632 27404 ft 460 kts 326°
2026-05-04 18:27 -33.14133 -59.58346 27588 ft 463 kts 326°
2026-05-04 18:27 -33.11205 -59.60071 27860 ft 463 kts 326°
2026-05-04 18:27 -33.08313 -59.61772 28100 ft 464 kts 326°
2026-05-04 18:27 -33.05393 -59.63489 28293 ft 466 kts 326°
2026-05-04 18:28 -33.02425 -59.65233 28491 ft 467 kts 327°
2026-05-04 18:28 -32.99484 -59.66959 28678 ft 469 kts 327°
2026-05-04 18:28 -32.96554 -59.68679 28866 ft 471 kts 327°
2026-05-04 18:28 -32.93580 -59.70421 29036 ft 473 kts 327°
2026-05-04 18:29 -32.90598 -59.72168 29282 ft 472 kts 327°
2026-05-04 18:29 -32.87597 -59.73924 29524 ft 473 kts 327°
2026-05-04 18:29 -32.84615 -59.75669 29785 ft 472 kts 327°
2026-05-04 18:29 -32.81650 -59.77399 30083 ft 471 kts 327°
2026-05-04 18:30 -32.75727 -59.80857 30661 ft 468 kts 327°
2026-05-04 18:30 -32.72771 -59.82581 31003 ft 466 kts 327°
2026-05-04 18:30 -32.69849 -59.84285 31239 ft 466 kts 327°
2026-05-04 18:31 -32.66913 -59.85993 31544 ft 464 kts 326°
2026-05-04 18:31 -32.63983 -59.87698 31830 ft 463 kts 326°
2026-05-04 18:31 -32.61058 -59.89399 32126 ft 461 kts 326°
2026-05-04 18:31 -32.58114 -59.91108 32386 ft 460 kts 326°
2026-05-04 18:32 -32.55179 -59.92813 32729 ft 457 kts 326°
2026-05-04 18:32 -32.52311 -59.94477 32999 ft 456 kts 326°
2026-05-04 18:32 -32.49427 -59.96149 33237 ft 455 kts 326°
2026-05-04 18:32 -32.46539 -59.97821 33550 ft 453 kts 326°
2026-05-04 18:33 -32.43692 -59.99469 33797 ft 452 kts 326°
2026-05-04 18:33 -32.40827 -60.01128 33933 ft 454 kts 326°
2026-05-04 18:33 -32.37965 -60.02784 33860 ft 459 kts 326°
2026-05-04 18:34 -32.32173 -60.06128 33897 ft 461 kts 326°
2026-05-04 18:34 -32.25795 -60.09804 33898 ft 457 kts 326°
2026-05-04 18:35 -32.20061 -60.13106 33891 ft 458 kts 326°
2026-05-04 18:35 -32.14299 -60.16418 33881 ft 457 kts 327°
2026-05-04 18:36 -32.08518 -60.19736 33878 ft 458 kts 327°
2026-05-04 18:36 -32.02764 -60.23035 33885 ft 457 kts 326°
2026-05-04 18:37 -31.96990 -60.26341 33882 ft 459 kts 326°
2026-05-04 18:37 -31.91199 -60.29651 33885 ft 458 kts 327°
2026-05-04 18:38 -31.85432 -60.32944 33879 ft 459 kts 327°
2026-05-04 18:38 -31.79613 -60.36261 33880 ft 459 kts 327°
2026-05-04 18:39 -31.73816 -60.39561 33887 ft 457 kts 327°
2026-05-04 18:39 -31.68058 -60.42833 33886 ft 457 kts 327°
2026-05-04 18:40 -31.62317 -60.46093 33880 ft 456 kts 327°
2026-05-04 18:40 -31.56560 -60.49357 33875 ft 456 kts 327°
2026-05-04 18:41 -31.50786 -60.52625 33871 ft 457 kts 327°
2026-05-04 18:41 -31.44993 -60.55901 33874 ft 458 kts 327°
2026-05-04 18:42 -31.39238 -60.59149 33879 ft 457 kts 327°
2026-05-04 18:42 -31.33462 -60.62405 33882 ft 457 kts 327°
2026-05-04 18:43 -31.27667 -60.65669 33878 ft 456 kts 327°
2026-05-04 18:43 -31.21927 -60.68895 33880 ft 456 kts 327°
2026-05-04 18:44 -31.16157 -60.72135 33888 ft 457 kts 328°
2026-05-04 18:44 -31.10377 -60.75376 33890 ft 457 kts 327°
2026-05-04 18:45 -31.04604 -60.78609 33891 ft 458 kts 327°
2026-05-04 18:45 -30.98809 -60.81849 33894 ft 461 kts 327°
2026-05-04 18:46 -30.92945 -60.84981 33887 ft 464 kts 333°
2026-05-04 18:46 -30.86761 -60.87474 33874 ft 467 kts 334°
2026-05-04 18:47 -30.80592 -60.89999 33872 ft 463 kts 334°
2026-05-04 18:47 -30.74492 -60.92495 33868 ft 463 kts 334°
2026-05-04 18:48 -30.68389 -60.94991 33870 ft 464 kts 334°
2026-05-04 18:48 -30.62200 -60.97519 33865 ft 465 kts 334°
2026-05-04 18:49 -30.56066 -61.00019 33869 ft 464 kts 334°
2026-05-04 18:49 -30.49921 -61.02522 33861 ft 465 kts 334°
2026-05-04 18:50 -30.43774 -61.05022 33859 ft 462 kts 333°
2026-05-04 18:50 -30.37689 -61.07494 33858 ft 463 kts 334°
2026-05-04 18:51 -30.31565 -61.09978 33865 ft 462 kts 334°
2026-05-04 18:51 -30.25414 -61.12468 33868 ft 462 kts 334°
2026-05-04 18:52 -30.19324 -61.14933 33879 ft 463 kts 333°
2026-05-04 18:52 -30.13193 -61.17408 33881 ft 463 kts 333°
2026-05-04 18:53 -30.07034 -61.19894 33878 ft 463 kts 333°
2026-05-04 18:53 -30.00905 -61.22364 33873 ft 463 kts 333°
2026-05-04 18:54 -29.94766 -61.24834 33876 ft 463 kts 333°
2026-05-04 18:54 -29.88656 -61.27290 33875 ft 463 kts 333°
2026-05-04 18:55 -29.82482 -61.29767 33872 ft 464 kts 333°
2026-05-04 18:55 -29.73245 -61.33468 33870 ft 466 kts 333°
2026-05-04 18:56 -29.67045 -61.35948 33865 ft 464 kts 333°
2026-05-04 18:56 -29.60907 -61.38400 33859 ft 464 kts 333°
2026-05-04 18:57 -29.54771 -61.40848 33858 ft 465 kts 333°
2026-05-04 18:57 -29.48624 -61.43298 33853 ft 464 kts 333°
2026-05-04 18:58 -29.42497 -61.45737 33856 ft 463 kts 333°
2026-05-04 18:58 -29.36313 -61.48195 33855 ft 465 kts 333°
2026-05-04 18:59 -29.30178 -61.50630 33852 ft 465 kts 333°
2026-05-04 18:59 -29.23998 -61.53080 33843 ft 464 kts 333°
2026-05-04 19:00 -29.17839 -61.55519 33839 ft 465 kts 333°
2026-05-04 19:00 -29.11674 -61.57957 33842 ft 466 kts 333°
2026-05-04 19:01 -29.05514 -61.60389 33838 ft 464 kts 333°
2026-05-04 19:01 -28.99379 -61.62810 33841 ft 463 kts 333°
2026-05-04 19:02 -28.93171 -61.65255 33842 ft 464 kts 334°
2026-05-04 19:02 -28.86990 -61.67688 33847 ft 466 kts 334°
2026-05-04 19:03 -28.80802 -61.70118 33856 ft 466 kts 334°
2026-05-04 19:03 -28.74645 -61.72535 33859 ft 465 kts 334°
2026-05-04 19:04 -28.68420 -61.74973 33857 ft 465 kts 334°
2026-05-04 19:04 -28.62264 -61.77381 33856 ft 464 kts 334°
2026-05-04 19:05 -28.56127 -61.79780 33854 ft 464 kts 334°
2026-05-04 19:05 -28.49941 -61.82193 33851 ft 463 kts 333°
2026-05-04 19:06 -28.43823 -61.84580 33852 ft 465 kts 333°
2026-05-04 19:06 -28.37661 -61.86979 33846 ft 464 kts 333°
2026-05-04 19:07 -28.31473 -61.89385 33834 ft 464 kts 334°
2026-05-04 19:07 -28.25308 -61.91781 33839 ft 464 kts 333°
2026-05-04 19:08 -28.19107 -61.94188 33839 ft 465 kts 334°
2026-05-04 19:08 -28.12969 -61.96567 33832 ft 461 kts 334°
2026-05-04 19:09 -28.06818 -61.98947 33838 ft 462 kts 334°
2026-05-04 19:09 -28.00711 -62.01307 33836 ft 461 kts 334°
2026-05-04 19:10 -27.94574 -62.03679 33831 ft 463 kts 334°
2026-05-04 19:10 -27.88391 -62.06062 33831 ft 465 kts 334°
2026-05-04 19:11 -27.82208 -62.08444 33832 ft 465 kts 334°
2026-05-04 19:11 -27.76036 -62.10818 33832 ft 463 kts 334°
2026-05-04 19:12 -27.66842 -62.14350 33832 ft 463 kts 334°
2026-05-04 19:13 -27.60685 -62.16711 33831 ft 463 kts 334°
2026-05-04 19:13 -27.54524 -62.19072 33832 ft 463 kts 334°
2026-05-04 19:14 -27.48345 -62.21439 33830 ft 465 kts 334°
2026-05-04 19:14 -27.42178 -62.23795 33831 ft 464 kts 334°
2026-05-04 19:15 -27.36002 -62.26152 33835 ft 465 kts 334°
2026-05-04 19:15 -27.29813 -62.28512 33833 ft 464 kts 334°
2026-05-04 19:16 -27.23649 -62.30862 33829 ft 465 kts 334°
2026-05-04 19:16 -27.17435 -62.33228 33829 ft 466 kts 334°
2026-05-04 19:17 -27.11263 -62.35576 33829 ft 465 kts 334°
2026-05-04 19:17 -27.05075 -62.37925 33829 ft 467 kts 334°
2026-05-04 19:18 -26.98868 -62.40281 33827 ft 465 kts 334°
2026-05-04 19:18 -26.92701 -62.42617 33825 ft 465 kts 334°
2026-05-04 19:19 -26.87378 -62.44633 33809 ft 466 kts 334°
2026-05-04 19:19 -26.81184 -62.46976 33824 ft 465 kts 334°
2026-05-04 19:20 -26.74972 -62.49322 33831 ft 466 kts 334°
2026-05-04 19:20 -26.68763 -62.51666 33816 ft 464 kts 334°
2026-05-04 19:21 -26.62585 -62.53994 33828 ft 467 kts 334°
2026-05-04 19:21 -26.56339 -62.56345 33817 ft 467 kts 334°
2026-05-04 19:22 -26.50133 -62.58680 33823 ft 468 kts 334°
2026-05-04 19:22 -26.43911 -62.61017 33821 ft 466 kts 334°
2026-05-04 19:23 -26.37709 -62.63343 33820 ft 468 kts 334°
2026-05-04 19:23 -26.31469 -62.65682 33830 ft 467 kts 335°
2026-05-04 19:24 -26.25223 -62.68019 33829 ft 468 kts 335°
2026-05-04 19:24 -26.18928 -62.70374 33830 ft 470 kts 335°
2026-05-04 19:25 -26.12689 -62.72703 33835 ft 470 kts 335°
2026-05-04 19:25 -26.06402 -62.75048 33833 ft 472 kts 335°
2026-05-04 19:26 -26.00138 -62.77382 33831 ft 469 kts 335°
2026-05-04 19:26 -25.93897 -62.79704 33822 ft 471 kts 335°
2026-05-04 19:27 -25.87590 -62.82052 33815 ft 473 kts 335°
2026-05-04 19:27 -25.81307 -62.84383 33812 ft 471 kts 334°
2026-05-04 19:28 -25.75068 -62.86698 33813 ft 470 kts 335°
2026-05-04 19:28 -25.68737 -62.88916 33813 ft 473 kts 335°
2026-05-04 19:29 -25.62400 -62.91129 33819 ft 474 kts 336°
2026-05-04 19:29 -25.56043 -62.93346 33821 ft 473 kts 335°
2026-05-04 19:30 -25.49711 -62.95555 33822 ft 472 kts 335°
2026-05-04 19:30 -25.43384 -62.97757 33825 ft 474 kts 336°
2026-05-04 19:31 -25.37027 -62.99970 33828 ft 471 kts 335°
2026-05-04 19:31 -25.30709 -63.02165 33831 ft 472 kts 336°
2026-05-04 19:32 -25.24339 -63.04377 33834 ft 476 kts 336°
2026-05-04 19:32 -25.17966 -63.06585 33831 ft 474 kts 335°
2026-05-04 19:33 -25.11620 -63.08783 33831 ft 473 kts 336°
2026-05-04 19:33 -25.05256 -63.10986 33833 ft 476 kts 336°
2026-05-04 19:34 -24.98888 -63.13183 33819 ft 473 kts 336°
2026-05-04 19:34 -24.92514 -63.15385 33809 ft 474 kts 335°
2026-05-04 19:35 -24.86137 -63.17584 33802 ft 476 kts 335°
2026-05-04 19:35 -24.79750 -63.19783 33800 ft 474 kts 335°
2026-05-04 19:36 -24.73381 -63.21976 33799 ft 475 kts 335°
2026-05-04 19:36 -24.67006 -63.24166 33798 ft 476 kts 335°
2026-05-04 19:37 -24.60610 -63.26362 33805 ft 475 kts 335°
2026-05-04 19:37 -24.54241 -63.28549 33811 ft 477 kts 335°
2026-05-04 19:38 -24.47852 -63.30738 33800 ft 474 kts 335°
2026-05-04 19:38 -24.41478 -63.32920 33805 ft 475 kts 335°
2026-05-04 19:39 -24.35104 -63.35098 33798 ft 473 kts 335°
2026-05-04 19:39 -24.28755 -63.37268 33801 ft 475 kts 335°
2026-05-04 19:40 -24.22376 -63.39444 33806 ft 474 kts 335°
2026-05-04 19:40 -24.16018 -63.41613 33802 ft 476 kts 335°
2026-05-04 19:41 -24.09620 -63.43792 33802 ft 478 kts 335°
2026-05-04 19:41 -24.03199 -63.45977 33800 ft 476 kts 335°
2026-05-04 19:42 -23.96857 -63.48130 33807 ft 476 kts 335°
2026-05-04 19:42 -23.90461 -63.50303 33808 ft 478 kts 335°
2026-05-04 19:43 -23.84031 -63.52482 33802 ft 476 kts 335°
2026-05-04 19:43 -23.77659 -63.54641 33794 ft 474 kts 335°
2026-05-04 19:44 -23.71295 -63.56795 33799 ft 475 kts 335°
2026-05-04 19:44 -23.64906 -63.58957 33802 ft 475 kts 335°
2026-05-04 19:45 -23.58550 -63.61102 33807 ft 474 kts 335°
2026-05-04 19:45 -23.52151 -63.63262 33800 ft 475 kts 335°
2026-05-04 19:46 -23.45763 -63.65414 33807 ft 476 kts 335°
2026-05-04 19:46 -23.39322 -63.67584 33812 ft 477 kts 336°
2026-05-04 19:47 -23.32957 -63.69724 33814 ft 476 kts 335°
2026-05-04 19:47 -23.26535 -63.71883 33815 ft 477 kts 336°
2026-05-04 19:48 -23.20145 -63.74027 33812 ft 476 kts 335°
2026-05-04 19:48 -23.13756 -63.76171 33807 ft 475 kts 336°
2026-05-04 19:49 -23.07368 -63.78310 33808 ft 474 kts 336°
2026-05-04 19:49 -23.00997 -63.80442 33806 ft 476 kts 336°
2026-05-04 19:50 -22.94621 -63.82573 33810 ft 476 kts 336°
2026-05-04 19:50 -22.88178 -63.84727 33809 ft 477 kts 336°
2026-05-04 19:51 -22.81783 -63.86860 33812 ft 475 kts 336°
2026-05-04 19:51 -22.75406 -63.88986 33822 ft 473 kts 336°
2026-05-04 19:52 -22.69018 -63.91113 33830 ft 474 kts 336°
2026-05-04 19:52 -22.62690 -63.93218 33834 ft 471 kts 336°
2026-05-04 19:53 -22.56330 -63.95333 33842 ft 472 kts 336°
2026-05-04 19:53 -22.49967 -63.97446 33844 ft 473 kts 336°
2026-05-04 19:54 -22.43588 -63.99564 33840 ft 475 kts 336°
2026-05-04 19:54 -22.37205 -64.01678 33849 ft 474 kts 336°
2026-05-04 19:55 -22.30832 -64.03788 33869 ft 473 kts 336°
2026-05-04 19:55 -22.24430 -64.05907 33890 ft 472 kts 336°
2026-05-04 19:56 -22.18084 -64.07896 33938 ft 471 kts 337°
2026-05-04 19:56 -22.11686 -64.09895 33934 ft 471 kts 337°
2026-05-04 19:57 -22.05340 -64.11878 33936 ft 473 kts 337°
2026-05-04 19:57 -21.98935 -64.13876 33963 ft 472 kts 337°
2026-05-04 19:58 -21.92543 -64.15868 34012 ft 473 kts 337°
2026-05-04 19:58 -21.86126 -64.17866 34036 ft 471 kts 337°
2026-05-04 19:59 -21.79772 -64.19843 34021 ft 471 kts 337°
2026-05-04 19:59 -21.73360 -64.21835 33992 ft 470 kts 337°
2026-05-04 20:00 -21.67009 -64.23808 33990 ft 469 kts 338°
2026-05-04 20:00 -21.60681 -64.25770 34041 ft 470 kts 337°
2026-05-04 20:01 -21.54298 -64.27749 34095 ft 470 kts 338°
2026-05-04 20:01 -21.47972 -64.29707 34191 ft 469 kts 337°
2026-05-04 20:02 -21.41599 -64.31680 34100 ft 470 kts 338°
2026-05-04 20:02 -21.35236 -64.33648 34186 ft 468 kts 337°
2026-05-04 20:03 -21.28902 -64.35626 34199 ft 468 kts 337°
2026-05-04 20:03 -21.22572 -64.37601 34151 ft 470 kts 338°
2026-05-04 20:04 -21.16211 -64.39584 34181 ft 468 kts 337°
2026-05-04 20:04 -21.09875 -64.41557 34231 ft 468 kts 337°
2026-05-04 20:05 -21.03532 -64.43530 34299 ft 468 kts 338°
2026-05-04 20:05 -20.97213 -64.45495 34321 ft 469 kts 337°
2026-05-04 20:06 -20.90893 -64.47461 34276 ft 468 kts 338°
2026-05-04 20:06 -20.84496 -64.49454 34283 ft 468 kts 338°
2026-05-04 20:07 -20.78174 -64.51420 34211 ft 470 kts 338°
2026-05-04 20:07 -20.71827 -64.53392 34232 ft 469 kts 338°
2026-05-04 20:08 -20.65477 -64.55363 34245 ft 469 kts 338°
2026-05-04 20:08 -20.59142 -64.57330 34291 ft 471 kts 338°
2026-05-04 20:09 -20.52788 -64.59299 34309 ft 469 kts 338°
2026-05-04 20:09 -20.46422 -64.61269 34341 ft 469 kts 338°
2026-05-04 20:10 -20.40073 -64.63235 34380 ft 470 kts 338°
2026-05-04 20:10 -20.33729 -64.65197 34385 ft 471 kts 338°
2026-05-04 20:11 -20.27377 -64.67183 34474 ft 470 kts 339°
2026-05-04 20:11 -20.21022 -64.69167 34507 ft 471 kts 338°
2026-05-04 20:12 -20.14626 -64.71162 34574 ft 471 kts 339°